GPS BIIF-8

Last updated on Fri Jul 04 2025 00:02:32 GMT+0000 (Coordinated Universal Time)

1 40294U 14068A 25184.41648137 -.00000087 00000+0 00000+0 0 9996 2 40294 56.7351 44.4211 0061608 67.4756 293.2316 2.00554971 78217
UTC large
Height (km)
Speed (km/s)
/
Latitude / Longitude
Inclination (degrees)
Orbital Period (minutes)
Azimuth
Elevation
Range (km)
Doppler Factor

Next 0 passes for location: London (51.5072 / 0.1276)

Sorry there are no passes over London.